Regional Weather Roundup
Issued by NWS

Home | Current Version | Previous Version | Graphics & Text | Print | Product List | Glossary On
Versions: 1 2 3 4 5 6 7 8 9 10 11 12 13 14 15 16 17 18 19 20 21 22 23 24 25 26 27 28 29 30 31 32 33 34 35 36 37 38 39 40 41 42 43 44 45 46 47 48 49 50
014
ASUS43 KIND 061909
RWRIN

WEATHER ROUNDUP FOR INDIANA
NATIONAL WEATHER SERVICE INDIANAPOLIS IN
200 PM EST SAT FEB 06 2016

NOTE: "FAIR" INDICATES FEW OR NO CLOUDS BELOW 12,000 FEET WITH NO
SIGNIFICANT WEATHER AND/OR OBSTRUCTIONS TO VISIBILITY.

* - STATION DOES NOT REPORT WEATHER SUCH AS PRECIPITATION OR FOG.

+ - STATION NOT QUALITY CONTROLLED BY THE NATIONAL WEATHER SERVICE.
    USE DATA WITH CAUTION...ESPECIALLY DEWPOINT AND RELATIVE
    HUMIDITY OBSERVATIONS.

INZ001>003-010>013-019-020-062000-
NORTHWEST INDIANA

CITY           SKY/WX    TMP DP  RH WIND       PRES   REMARKS
GARY /AIRPORT/ MOSUNNY   39  25  56 SW20      30.21F
LA PORTE +     SUNNY     39  28  63 SW15      30.20F
MICHIGAN CITY+ SUNNY     39  28  65 SW10      30.21F
MONTICELLO +   SUNNY     39  21  47 SW12      30.24F
RENSSELAER +   SUNNY     39  27  60 SW14      30.23F
VALPARAISO     SUNNY     39  26  59 SW16      30.21F

$$

LMZ046-743>745-062000-
SOUTHERN LAKE MICHIGAN

STATION/POSITION TIME  TEMP    WIND        PRES    WAVE
                       AIR SEA DIR/SP/G            HT
                 (UTC) (F)     (DEG/KT/KT) (MB)    (FT)
BURNS HARBOR     1800   36     230/ 11/ 19 1024.0F
MICHIGAN CITY    1800   35     200/ 16/ 18   N/A

$$

INZ004-005-014>016-021>024-062000-
NORTH CENTRAL INDIANA

CITY           SKY/WX    TMP DP  RH WIND       PRES   REMARKS
ELKHART        MOSUNNY   37  19  48 MISG      30.21F
GOSHEN         SUNNY     36  22  56 SW15      30.21F
LOGANSPORT +   SUNNY     37  21  52 SW10      30.25F
PERU/GRISSOM   SUNNY     39  24  54 W9        30.22F
ROCHESTER +    SUNNY     39  21  48 SW10      30.23F
SOUTH BEND     MOSUNNY   36  22  56 SW14      30.21F
WARSAW +       SUNNY     37  23  56 SW13      30.22F

$$

INZ006>009-017-018-025>027-062000-
NORTHEAST INDIANA

CITY           SKY/WX    TMP DP  RH WIND       PRES   REMARKS
AUBURN +       SUNNY     36  23  60 SW7       30.22F
FORT WAYNE     MOSUNNY   36  23  59 SW14      30.24F
HUNTINGTON +   SUNNY     37  17  45 W13G18    30.24F

$$

INZ028-029-035-036-043>045-051>053-062000-
WEST CENTRAL INDIANA

CITY           SKY/WX    TMP DP  RH WIND       PRES   REMARKS
GREENCASTLE +  SUNNY     43  18  36 SW7       30.26F
LAFAYETTE      SUNNY     40  24  53 W10       30.25F
TERRE HAUTE    SUNNY     45  25  45 SW6       30.27F

$$

INZ030>032-037>040-046>048-054>057-064-065-062000-
CENTRAL INDIANA

CITY           SKY/WX    TMP DP  RH WIND       PRES   REMARKS
ANDERSON       SUNNY     37  21  52 SW9       30.27F
COLUMBUS       SUNNY     45  25  45 W6        30.27F
FISHERS *+     SUNNY     41  27  56 W9        30.26F
FRANKFORT +    SUNNY     42  15  33 SW8       30.26F
GREENWOOD *+   SUNNY     43  25  49 SW7       30.27F
INDIANAPOLIS   MOSUNNY   43  20  39 SW7       30.25F
-EAGLE CREEK   SUNNY     41  23  48 SW7       30.26F
KOKOMO *+        N/A     39  25  56 SW8       30.25F
MARION +       SUNNY     37  16  42 W9        30.26F
MT COMFORT *+  SUNNY     41  21  45 SW9       30.26F
SHELBYVILLE    SUNNY     40  24  53 SW7       30.26F
ZIONSVILLE +   SUNNY     39  25  56 SW8G16    30.26F

$$

INZ033-034-041-042-049-050-058-059-062000-
EAST CENTRAL INDIANA

CITY           SKY/WX    TMP DP  RH WIND       PRES   REMARKS
MUNCIE         SUNNY     39  21  48 W6        30.25F

$$

INZ060-061-067>069-081>083-085>088-062000-
SOUTHWEST INDIANA

CITY           SKY/WX    TMP DP  RH WIND       PRES   REMARKS
EVANSVILLE     SUNNY     53  27  36 SW3       30.30F
HUNTINGBURG *+ SUNNY     46  30  53 CALM      30.30F
WASHINGTON +   SUNNY     46  28  50 CALM      30.28F

$$

INZ062-063-066-070>080-084-089>092-062000-
SOUTH CENTRAL AND SOUTHEAST INDIANA

CITY           SKY/WX    TMP DP  RH WIND       PRES   REMARKS
BEDFORD +      SUNNY     46  27  46 W3        30.27F
BLOOMINGTON    SUNNY     46  24  42 W7        30.26F
MADISON *+     MOSUNNY   45  23  42 W6        30.30F
NORTH VERNON + SUNNY     45  21  39 CALM      30.29F
SEYMOUR +      SUNNY     46  27  46 S6        30.29F

$$





USA.gov is the U.S. government's official web portal to all federal, state and local government web resources and services.